Weather History for KPNC - November, 2012

Change the Weather History Date:

Thursday, November 22, 2012

  Actual Average Record
Temperature  
Mean Temperature 66 °F -  
Max Temperature 77 °F 60 °F 77 °F (2012)
Min Temperature 52 °F 37 °F 21 °F (2007)
Cooling Degree Days 1    
Growing Degree Days 16 (Base 50)    
Moisture  
Dew Point 46 °F    
Average Humidity 48    
Maximum Humidity 58    
Minimum Humidity 37    
Precipitation  
Precipitation 0.00 in - - ()
Sea Level Pressure  
Sea Level Pressure 29.97 in    
Wind  
Wind Speed 12 mph (SSW)    
Max Wind Speed 22 mph    
Max Gust Speed 32 mph    
Visibility 10 miles    
Events      
Averages and records for this station are not official NWS values.
T = Trace of Precipitation, MM = Missing Value Source: NWS Daily Summary

Daily Weather History Graph

Daily Weather History Graph

Search for Another Location

Airport or City:

Trip Planner

Search our weather history database for the weather conditions in past years. The results will help you decide how hot, cold, wet, or windy it might be!

Date:

Astronomy

Nov. 22, 2012 Rise Set
Actual Time 7:14 AM CST 5:15 PM CST
Civil Twilight 6:46 AM CST 5:43 PM CST
Nautical Twilight 6:14 AM CST 6:14 PM CST
Astronomical Twilight 5:43 AM CST 6:45 PM CST
Moon 1:54 PM CST (11/22) 1:43 AM CST (11/22)
Length of Visible Light 10h 56m
Length of Day
10h 00m
Waxing Gibbous, 71% of the Moon is Illuminated
Nov 22
Waxing Gibbous
Nov 28
Full
Dec 6
Last Quarter
Dec 13
New
Dec 19
First Quarter

Hourly Weather History & Observations

Time (CST) Temp. Dew Point Humidity Pressure Visibility Wind Dir Wind Speed Gust Speed Precip Events Conditions
12:53 AM 64.0 °F 44.1 °F 48% 29.94 in 10.0 mi South 10.4 mph 19.6 mph N/A   Clear
1:53 AM 64.0 °F 44.1 °F 48% 29.92 in 10.0 mi South 11.5 mph 18.4 mph N/A   Clear
2:53 AM 63.0 °F 45.0 °F 52% 29.92 in 10.0 mi South 10.4 mph 18.4 mph N/A   Clear
3:53 AM 63.0 °F 45.0 °F 52% 29.92 in 10.0 mi South 9.2 mph - N/A   Clear
4:53 AM 62.1 °F 46.0 °F 56% 29.91 in 10.0 mi South 9.2 mph - N/A   Clear
5:53 AM 61.0 °F 46.0 °F 58% 29.91 in 10.0 mi South 8.1 mph - N/A   Clear
6:53 AM 62.1 °F 46.9 °F 58% 29.91 in 10.0 mi South 9.2 mph 17.3 mph N/A   Clear
7:53 AM 63.0 °F 48.0 °F 58% 29.90 in 10.0 mi South 10.4 mph 19.6 mph N/A   Clear
8:53 AM 64.9 °F 48.9 °F 56% 29.90 in 10.0 mi South 10.4 mph 20.7 mph N/A   Clear
9:53 AM 69.1 °F 48.9 °F 49% 29.90 in 10.0 mi South 11.5 mph 20.7 mph N/A   Clear
10:53 AM 73.0 °F 48.9 °F 42% 29.90 in 10.0 mi SSW 21.9 mph 28.8 mph N/A   Clear
11:53 AM 75.0 °F 50.0 °F 41% 29.87 in 10.0 mi SSW 21.9 mph 28.8 mph N/A   Clear
12:53 PM 75.9 °F 50.0 °F 40% 29.86 in 10.0 mi SSW 10.4 mph 26.5 mph N/A   Clear
1:53 PM 77.0 °F 48.9 °F 37% 29.85 in 10.0 mi SSW 16.1 mph 24.2 mph N/A   Clear
2:53 PM 77.0 °F 50.0 °F 39% 29.86 in 10.0 mi SW 19.6 mph 27.6 mph N/A   Clear
3:53 PM 75.0 °F 51.1 °F 43% 29.89 in 10.0 mi SSW 11.5 mph - N/A   Clear
4:53 PM 73.0 °F 51.1 °F 46% 29.92 in 10.0 mi SW 6.9 mph - N/A   Clear
5:53 PM 68.0 °F 51.1 °F 55% 29.97 in 10.0 mi NW 5.8 mph - N/A   Mostly Cloudy
6:53 PM 66.9 °F 46.9 °F 49% 30.03 in 10.0 mi North 20.7 mph 32.2 mph N/A   Mostly Cloudy
7:53 PM 63.0 °F 39.0 °F 41% 30.10 in 10.0 mi North 19.6 mph - N/A   Clear
8:53 PM 59.0 °F 39.0 °F 48% 30.16 in 10.0 mi North 21.9 mph - N/A   Partly Cloudy
9:53 PM 57.0 °F 37.0 °F 47% 30.19 in 10.0 mi North 20.7 mph 32.2 mph N/A   Clear
10:53 PM 55.0 °F 34.0 °F 45% 30.23 in 10.0 mi North 17.3 mph 26.5 mph N/A   Clear
11:53 PM 52.0 °F 34.0 °F 50% 30.27 in 10.0 mi NNE 12.7 mph - N/A   Clear